Location: 5810 Zion Rd, Cleves, OH 45002, USA
(39.1922°N, 84.7113°W)
Time: 09:53:35
(UTC-05:00)

Courier 1B Rocket - Pass Details

Date: 13 December 2019
Orbit: 920 x 1202 km, 28.2° (Epoch: 23 January)

Event Time Altitude Azimuth Distance (km) Brightness Sun altitude
Rises 07:18:20 0° 248° (WSW) 3,877 7.7 -6.2°
Reaches altitude 10° 07:21:27 10° 239° (WSW) 2,873 7.1 -5.7°
Maximum altitude 07:27:30 32° 179° (S) 1,645 6.6 -4.6°
Drops below altitude 10° 07:33:13 10° 118° (ESE) 2,701 9.4 -3.6°
Sets 07:36:03 0° 109° (ESE) 3,614 10.4 -3.1°
